Tracking 27402 objects as of 2-Jun-2023
HD Live streaming from Space Station
objects crossing your sky now

FALCON 9 R/B

Track FALCON 9 R/B now!
10-day predictions


NORAD ID: 43612
Int'l Code: 2018-069B
Perigee: 268.4 km
Apogee: 16,967.7 km
Inclination: 27.0 °
Period: 304.4 minutes
Semi major axis: 14989 km
RCS: Unknown
Launch date: September 10, 2018
Source: United States (US)
Launch site: AIR FORCE EASTERN TEST RANGE (AFETR)

Note: This is a ROCKET BODY
Your satellite tracking list
Your tracking list is empty




NASA's NSSDC Master Catalog

Two Line Element Set (TLE):
1 43612U 18069B   23152.79385529  .00009443  00000-0  98458-3 0  9998
2 43612  27.0435 147.6074 5570526 225.8112  72.2057  4.73088371 78918
Source of the keplerian elements: AFSPC